Location: Tr�vern
(48.0333°N, 4.6000°W)
Time: 01:13:08
(UTC+00:00)

Cosmos 1703 Rocket - Pass Details

Date: 14 July 2020
Orbit: 605 x 634 km, 82.5° (Epoch: 11 August)

Event Time Altitude Azimuth Distance (km) Brightness Sun altitude
Rises 02:07:04 0° 344° (NNW) 2,935 7.8 -16.6°
Reaches altitude 10° 02:09:25 10° 337° (NNW) 2,018 6.8 -16.5°
Maximum altitude 02:13:35 40° 268° (W) 928 4.2 -16.2°
Enters shadow 02:15:14 28° 222° (SW) 1,165 4.4 -16.0°
